FW2178 Weather Reports


time (UTC)temp
C
wind
direction
speed
KPH
gust
KPH
rain 1hr
cm
rain 24hr
cm
rain mn
cm
humidity
%
barometer
mb
20260505122222 12 150 0.0 1.6 0.00 0.00 0.00 89 1012.4
20260505122013 12 150 0.0 1.6 0.00 0.00 0.00 89 1012.3
20260505121224 12 146 0.0 1.6 0.00 0.00 0.00 89 1012.5
20260505120723 12 151 0.0 1.6 0.00 0.00 0.00 89 1012.5
20260505120222 12 159 1.6 1.6 0.00 0.00 0.00 90 1012.2
20260505115724 12 151 0.0 1.6 0.00 0.00 0.00 90 1012.3
20260505115514 12 150 0.0 1.6 0.00 0.00 0.00 90 1012.4
20260505114723 12 150 1.6 1.6 0.00 0.00 0.00 90 1012.2
20260505114532 12 148 0.0 3.2 0.00 0.00 0.00 90 1012.4
20260505113724 12 150 0.0 3.2 0.00 0.00 0.00 90 1012.2
20260505113223 12 150 0.0 3.2 0.00 0.00 0.00 91 1012.1
20260505112723 12 150 1.6 3.2 0.00 0.00 0.00 90 1012.1
20260505112223 12 149 0.0 1.6 0.00 0.00 0.00 91 1012.2
20260505111723 12 163 0.0 3.2 0.00 0.00 0.00 90 1012.0
20260505111551 12 165 1.6 4.8 0.00 0.00 0.00 90 1012.2
20260505110723 12 160 1.6 4.8 0.00 0.00 0.00 90 1012.2
20260505110222 12 147 0.0 3.2 0.00 0.00 0.00 90 1012.2
20260505101723 12 139 1.6 3.2 0.00 0.00 0.00 91 1011.8
20260505101222 12 139 0.0 0.0 0.00 0.00 0.00 92 1011.8
20260505100723 11 138 0.0 0.0 0.00 0.00 0.00 93 1011.8
20260505100222 11 138 0.0 0.0 0.00 0.00 0.00 93 1011.7
20260505095723 11 138 0.0 0.0 0.00 0.00 0.00 93 1011.6
20260505095507 11 138 0.0 0.0 0.00 0.00 0.00 93 1011.4
20260505095010 11 138 0.0 0.0 0.00 0.00 0.00 94 1011.5
20260505094221 11 138 0.0 0.0 0.00 0.00 0.00 94 1011.2
20260505093723 11 138 0.0 0.0 0.00 0.00 0.00 95 1011.4
20260505093326 11 138 0.0 0.0 0.00 0.00 0.00 95 1011.3
20260505093043 11 138 0.0 0.0 0.00 0.00 0.00 94 1011.2
20260505091724 11 138 0.0 0.0 0.00 0.00 0.00 94 1011.4
20260505091223 11 138 0.0 0.0 0.00 0.00 0.00 93 1011.2
20260505090724 11 138 0.0 0.0 0.00 0.00 0.00 93 1011.3
20260505090222 11 138 0.0 0.0 0.00 0.00 0.00 93 1011.5
20260505085815 12 138 0.0 0.0 0.00 0.00 0.00 92 1011.1
20260505085753 12 138 0.0 0.0 0.00 0.00 0.00 92 1011.1
20260505084723 12 138 0.0 0.0 0.00 0.00 0.00 92 1011.0
20260505084222 12 138 0.0 0.0 0.00 0.00 0.00 92 1011.1
20260505083723 12 138 0.0 0.0 0.00 0.00 0.00 91 1011.3
20260505083223 12 139 0.0 0.0 0.00 0.00 0.00 90 1011.2
20260505082723 12 139 0.0 0.0 0.00 0.00 0.00 90 1011.1
20260505082222 12 139 0.0 0.0 0.00 0.00 0.00 90 1011.0
20260505081723 12 139 0.0 0.0 0.00 0.00 0.00 89 1011.1
20260505081222 13 139 0.0 0.0 0.00 0.00 0.00 89 1010.9
20260505080723 13 140 0.0 0.0 0.00 0.00 0.00 88 1010.8
20260505080223 13 139 0.0 0.0 0.00 0.00 0.00 88 1010.9
20260505075723 13 138 0.0 0.0 0.00 0.00 0.00 86 1010.7
20260505075222 13 146 0.0 0.0 0.00 0.00 0.00 87 1010.9
20260505075018 13 146 0.0 0.0 0.00 0.00 0.00 86 1010.9
20260505074222 13 147 0.0 0.0 0.00 0.00 0.00 86 1010.8
20260505073723 13 146 0.0 0.0 0.00 0.00 0.00 86 1011.0
20260505073223 14 145 0.0 0.0 0.00 0.00 0.00 85 1010.5
20260505073015 14 150 0.0 0.0 0.00 0.00 0.00 84 1010.7
20260505072222 14 150 0.0 0.0 0.00 0.00 0.00 84 1010.6
20260505071723 14 145 0.0 0.0 0.00 0.00 0.00 85 1010.4
20260505071233 14 142 0.0 0.0 0.00 0.00 0.00 83 1010.6
20260505070724 14 142 0.0 0.0 0.00 0.00 0.00 84 1010.6
20260505070223 14 140 0.0 0.0 0.00 0.00 0.00 83 1010.5
20260505065723 14 131 0.0 0.0 0.00 0.00 0.00 86 1010.3
20260505065223 14 131 0.0 0.0 0.00 0.00 0.00 84 1010.2
20260505064723 14 131 0.0 0.0 0.00 0.00 0.00 84 1010.3
20260505064223 14 130 0.0 0.0 0.00 0.00 0.00 87 1010.3
20260505063723 14 130 0.0 0.0 0.00 0.00 0.00 87 1010.2
20260505063223 14 130 0.0 0.0 0.00 0.00 0.00 87 1010.1
20260505062723 14 130 0.0 0.0 0.00 0.00 0.00 86 1010.1
20260505062223 14 130 0.0 0.0 0.00 0.00 0.00 84 1010.0
20260505061723 13 130 0.0 0.0 0.00 0.00 0.00 85 1009.9
20260505061223 13 130 0.0 0.0 0.00 0.00 0.00 84 1010.0
20260505060724 14 130 0.0 0.0 0.00 0.00 0.00 83 1009.9
20260505060224 14 130 0.0 0.0 0.00 0.00 0.00 83 1009.9
20260505060014 14 130 0.0 0.0 0.00 0.00 0.00 82 1010.0
20260505055558 15 130 0.0 0.0 0.00 0.00 0.00 81 1009.8
20260505055549 14 130 0.0 0.0 0.00 0.00 0.00 81 1009.7
20260505054222 15 130 0.0 0.0 0.00 0.00 0.00 81 1009.6
20260505053724 15 130 0.0 0.0 0.00 0.00 0.00 80 1009.5
20260505053222 15 131 0.0 0.0 0.00 0.00 0.00 78 1009.7
20260505052723 15 131 0.0 0.0 0.00 0.00 0.00 78 1009.5
20260505052222 15 131 0.0 0.0 0.00 0.00 0.00 78 1009.5
20260505051723 15 131 0.0 0.0 0.00 0.00 0.00 77 1009.4
20260505051222 15 131 0.0 0.0 0.00 0.00 0.00 76 1009.4
20260505051015 15 131 0.0 0.0 0.00 0.00 0.00 75 1009.5
20260505050222 15 131 0.0 0.0 0.00 0.00 0.00 75 1009.4
20260505041711 16 130 0.0 0.0 0.00 0.00 0.00 77 1008.8
20260505041210 16 130 0.0 0.0 0.00 0.00 0.00 75 1008.9
20260505040711 16 130 0.0 0.0 0.00 0.00 0.00 73 1008.8
20260505040211 16 130 0.0 0.0 0.00 0.00 0.00 73 1008.7
20260505035711 16 130 0.0 0.0 0.00 0.00 0.00 73 1008.6
20260505035209 16 130 0.0 0.0 0.00 0.00 0.00 74 1008.5
20260505034711 17 129 0.0 0.0 0.00 0.00 0.00 75 1008.6
20260505034506 17 129 0.0 0.0 0.00 0.00 0.00 72 1008.5
20260505034012 17 129 0.0 0.0 0.00 0.00 0.00 73 1008.3
20260505033209 17 129 0.0 0.0 0.00 0.00 0.00 72 1008.4
20260505032959 17 128 0.0 0.0 0.00 0.00 0.00 72 1008.3
20260505032202 17 128 0.0 0.0 0.00 0.00 0.00 72 1008.1
20260505031703 18 128 0.0 0.0 0.00 0.00 0.00 71 1008.4
20260505031453 18 128 0.0 0.0 0.00 0.00 0.00 70 1007.9
20260505031004 18 128 0.0 0.0 0.00 0.00 0.00 70 1008.1
20260505030202 18 128 0.0 0.0 0.00 0.00 0.00 66 1008.0
20260505025702 19 128 0.0 0.0 0.00 0.00 0.00 69 1008.1
20260505025205 19 128 0.0 0.0 0.00 0.00 0.00 67 1007.7
20260505024702 20 128 0.0 0.0 0.00 0.00 0.00 63 1007.8
20260505024202 19 129 0.0 0.0 0.00 0.00 0.00 61 1007.6
20260505023706 19 137 0.0 0.0 0.00 0.00 0.00 67 1007.7
20260505023203 20 137 0.0 0.0 0.00 0.00 0.00 66 1007.7
20260505022702 20 137 0.0 0.0 0.00 0.00 0.00 66 1007.8
20260505022205 20 137 0.0 0.0 0.00 0.00 0.00 67 1007.4
20260505021702 20 137 0.0 0.0 0.00 0.00 0.00 67 1007.7
20260505021202 20 137 0.0 0.0 0.00 0.00 0.00 64 1007.6
20260505021003 20 137 0.0 0.0 0.00 0.00 0.00 64 1007.5
20260505020202 20 137 0.0 0.0 0.00 0.00 0.00 64 1007.8
20260505015753 21 138 0.0 0.0 0.00 0.00 0.00 57 1007.7
20260505015733 21 137 0.0 0.0 0.00 0.00 0.00 63 1007.7
20260505014705 21 138 0.0 0.0 0.00 0.00 0.00 60 1007.9
20260505014203 21 138 0.0 0.0 0.00 0.00 0.00 65 1007.7
20260505013702 21 137 0.0 0.0 0.00 0.00 0.00 63 1007.8
20260505013206 21 137 0.0 0.0 0.00 0.00 0.00 61 1007.8
20260505012702 21 137 0.0 0.0 0.00 0.00 0.00 61 1007.7
20260505012202 21 137 0.0 0.0 0.00 0.00 0.00 55 1007.8
20260505011705 22 125 0.0 0.0 0.00 0.00 0.00 54 1007.8
20260505011203 22 135 0.0 0.0 0.00 0.00 0.00 54 1007.7
20260505010702 22 136 0.0 0.0 0.00 0.00 0.00 51 1007.7
20260505010205 22 119 0.0 0.0 0.00 0.00 0.00 48 1007.7
20260505005703 22 150 0.0 0.0 0.00 0.00 0.00 53 1007.8
20260505005204 23 159 0.0 0.0 0.00 0.00 0.00 55 1007.6
20260505004705 23 119 0.0 1.6 0.00 0.00 0.00 54 1007.6
20260505004203 23 149 0.0 1.6 0.00 0.00 0.00 51 1007.8
20260505003702 23 126 0.0 1.6 0.00 0.00 0.00 45 1007.7
20260505003205 23 177 1.6 1.6 0.00 0.00 0.00 44 1007.7
20260505002702 23 131 0.0 1.6 0.00 0.00 0.00 50 1007.6
20260505002202 23 142 0.0 1.6 0.00 0.00 0.00 46 1007.7
20260505002003 24 113 0.0 1.6 0.00 0.00 0.00 40 1007.9
20260505001202 23 169 0.0 0.0 0.00 0.00 0.00 47 1007.7
20260505000704 23 186 0.0 1.6 0.00 0.00 0.00 44 1007.6
20260505000507 23 149 0.0 1.6 0.00 0.00 0.00 58 1007.9
20260504235702 24 144 0.0 0.0 0.00 0.00 0.00 53 1007.7
20260504235205 24 144 0.0 0.0 0.00 0.00 0.00 48 1007.9
20260504234702 24 161 0.0 0.0 0.00 0.00 0.00 46 1007.9
20260504234202 24 141 0.0 0.0 0.00 0.00 0.00 50 1007.8
20260504233705 24 140 0.0 3.2 0.00 0.00 0.00 46 1007.8
20260504233203 24 149 0.0 3.2 0.00 0.00 0.00 44 1007.7
20260504232709 24 144 0.0 0.0 0.00 0.00 0.00 45 1008.0
20260504232208 24 158 0.0 0.0 0.00 0.00 0.00 46 1008.0
20260504231704 24 145 0.0 0.0 0.00 0.00 0.00 46 1007.9
20260504231203 25 140 0.0 0.0 0.00 0.00 0.00 49 1007.9
20260504230955 25 165 0.0 0.0 0.00 0.00 0.00 43 1007.9
20260504230202 25 146 0.0 0.0 0.00 0.00 0.00 46 1007.9
20260504225949 25 136 0.0 0.0 0.00 0.00 0.00 45 1008.0
20260504225203 25 149 0.0 0.0 0.00 0.00 0.00 44 1008.1
20260504224954 25 137 0.0 0.0 0.00 0.00 0.00 43 1008.1
20260504224203 25 163 0.0 0.0 0.00 0.00 0.00 44 1008.0
20260504223702 25 137 0.0 0.0 0.00 0.00 0.00 44 1008.1
20260504223512 25 146 0.0 0.0 0.00 0.00 0.00 45 1008.3
20260504222702 24 65 0.0 0.0 0.00 0.00 0.00 44 1008.4
20260504222202 25 106 0.0 0.0 0.00 0.00 0.00 42 1008.3
20260504221705 24 37 0.0 0.0 0.00 0.00 0.00 44 1008.6
20260504221203 25 152 0.0 0.0 0.00 0.00 0.00 45 1008.8
20260504220702 25 134 0.0 0.0 0.00 0.00 0.00 45 1008.7
20260504220209 24 136 0.0 0.0 0.00 0.00 0.00 43 1008.6
20260504215701 24 141 0.0 0.0 0.00 0.00 0.00 46 1008.6
20260504215202 24 131 0.0 0.0 0.00 0.00 0.00 41 1008.7
20260504214705 24 265 0.0 0.0 0.00 0.00 0.00 43 1008.7
20260504214202 24 147 0.0 0.0 0.00 0.00 0.00 43 1008.6
20260504213947 24 150 0.0 0.0 0.00 0.00 0.00 42 1008.7
20260504213204 24 158 0.0 0.0 0.00 0.00 0.00 41 1008.8
20260504212702 24 142 0.0 0.0 0.00 0.00 0.00 41 1008.9
20260504212202 24 148 0.0 0.0 0.00 0.00 0.00 41 1008.7
20260504211704 24 169 0.0 0.0 0.00 0.00 0.00 40 1008.8
20260504211447 24 136 0.0 0.0 0.00 0.00 0.00 39 1008.9
20260504210702 24 135 0.0 0.0 0.00 0.00 0.00 40 1008.9
20260504210205 24 164 0.0 0.0 0.00 0.00 0.00 40 1008.9
20260504205955 24 140 0.0 0.0 0.00 0.00 0.00 40 1008.9
20260504205202 24 144 0.0 0.0 0.00 0.00 0.00 39 1009.0
20260504204705 24 173 0.0 0.0 0.00 0.00 0.00 38 1009.2
20260504204203 23 149 0.0 0.0 0.00 0.00 0.00 39 1008.9
20260504203703 23 153 0.0 0.0 0.00 0.00 0.00 38 1009.1
20260504203207 23 146 0.0 0.0 0.00 0.00 0.00 38 1009.1
20260504202705 23 141 0.0 0.0 0.00 0.00 0.00 38 1008.9
20260504202455 23 142 0.0 0.0 0.00 0.00 0.00 40 1008.9
20260504201702 23 141 0.0 0.0 0.00 0.00 0.00 41 1009.2
20260504201204 24 157 0.0 0.0 0.00 0.00 0.00 40 1009.0
20260504200705 23 152 0.0 0.0 0.00 0.00 0.00 42 1009.0
20260504200457 23 170 0.0 0.0 0.00 0.00 0.00 43 1008.9
20260504195703 23 148 0.0 0.0 0.00 0.00 0.00 43 1009.0
20260504195205 23 159 0.0 0.0 0.00 0.00 0.00 44 1009.1
20260504194702 23 154 0.0 0.0 0.00 0.00 0.00 44 1009.0
20260504194203 23 69 0.0 0.0 0.00 0.00 0.00 43 1009.0
20260504193704 23 143 0.0 0.0 0.00 0.00 0.00 43 1009.0
20260504193244 23 117 0.0 0.0 0.00 0.00 0.00 42 1008.9
20260504192201 23 140 0.0 0.0 0.00 0.00 0.00 43 1009.1
20260504191705 23 133 0.0 0.0 0.00 0.00 0.00 41 1009.0
20260504191201 23 145 0.0 0.0 0.00 0.00 0.00 42 1009.2
20260504190702 22 159 0.0 0.0 0.00 0.00 0.00 45 1009.0
20260504190204 22 164 0.0 0.0 0.00 0.00 0.00 44 1009.4
20260504185702 22 156 0.0 0.0 0.00 0.00 0.00 48 1008.9
20260504185202 22 129 0.0 0.0 0.00 0.00 0.00 46 1009.1
20260504184705 22 166 0.0 0.0 0.00 0.00 0.00 47 1009.4
20260504184202 22 139 0.0 0.0 0.00 0.00 0.00 45 1009.5
20260504183952 22 194 0.0 0.0 0.00 0.00 0.00 50 1009.3
20260504183202 21 151 0.0 0.0 0.00 0.00 0.00 48 1009.2
20260504183015 21 142 0.0 0.0 0.00 0.00 0.00 48 1009.5
20260504182202 21 123 0.0 0.0 0.00 0.00 0.00 47 1009.6
20260504181703 21 149 0.0 0.0 0.00 0.00 0.00 49 1009.4
20260504181453 21 173 0.0 0.0 0.00 0.00 0.00 47 1009.3
20260504181000 21 193 0.0 0.0 0.00 0.00 0.00 48 1009.3
20260504180202 21 168 0.0 0.0 0.00 0.00 0.00 56 1009.4
20260504175703 21 142 0.0 0.0 0.00 0.00 0.00 49 1009.4
20260504175206 21 165 0.0 0.0 0.00 0.00 0.00 54 1009.2
20260504174702 21 138 0.0 0.0 0.00 0.00 0.00 50 1009.3
20260504174202 21 148 0.0 0.0 0.00 0.00 0.00 51 1009.2
20260504173705 21 159 0.0 0.0 0.00 0.00 0.00 47 1009.2
20260504173206 20 135 0.0 0.0 0.00 0.00 0.00 58 1009.3
20260504172705 20 154 0.0 0.0 0.00 0.00 0.00 59 1009.2
20260504172205 20 151 0.0 0.0 0.00 0.00 0.00 64 1009.2
20260504171747 20 142 0.0 0.0 0.00 0.00 0.00 61 1009.5
20260504171729 20 138 0.0 0.0 0.00 0.00 0.00 60 1009.3
20260504170946 19 145 0.0 0.0 0.00 0.00 0.00 63 1009.4
20260504170205 19 145 0.0 0.0 0.00 0.00 0.00 64 1009.5
20260504160203 15 148 0.0 0.0 0.00 0.00 0.00 86 1009.0
20260504150702 12 134 0.0 0.0 0.00 0.00 0.00 92 1008.9
20260504150201 11 134 0.0 0.0 0.00 0.00 0.00 93 1008.9
20260504141204 10 134 0.0 0.0 0.00 0.00 0.00 95 1008.5
20260504140702 10 134 0.0 0.0 0.00 0.00 0.00 95 1008.6
20260504140504 10 134 0.0 0.0 0.00 0.00 0.00 95 1008.5
20260504130703 9 135 0.0 0.0 0.00 0.00 0.00 96 1008.4
20260504130205 9 135 0.0 0.0 0.00 0.00 0.00 95 1008.2